Location: Vienna
(48.2082°N, 16.3738°E)
Time: 22:24:07
(UTC+02:00)

ISS - Pass Details

Date: 13 July 2018
Orbit: 402 x 408 km, 51.6° (Epoch: 20 July)

Event Time Altitude Azimuth Distance (km) Brightness Sun altitude
Exits shadow 01:58:08 68° 144° (SE) 441 -3.9 -18.7°
Drops below altitude 10° 02:01:21 10° 70° (ENE) 1,472 -0.5 -18.6°
Sets 02:03:27 0° 68° (ENE) 2,336 0.6 -18.5°
